Retour au catalogue

CZ-2C R/B

ActifHEO
NORAD 28448·ROCKET BODY·🇨🇳 China

Lancé Jul 25, 2004 depuis Taiyuan Satellite Launch Center

Loading…

Prochains Passages (prochaines 24 heures)

TLE

FraisSource: Space-Track

Époque: Sep 13, 2026, 20:07 UTC

1 28448U 04029B   26256.83850760  .00000375  00000-0  34204-3 0  9990
2 28448  88.0153 235.7766 7204107 191.7229 131.9628  2.33714732173644

Suivez CZ-2C R/B en temps réel avec AllMySat

Download on the App Store